Other Public Products
Issued by NWS Grand Forks, ND

Home | Current Version | Previous Version | Graphics & Text | Print | Product List | Glossary On
Versions: 1 2 3 4 5 6 7 8 9 10 11 12 13 14 15 16 17 18 19 20 21 22 23 24 25 26 27 28 29 30 31 32 33 34 35 36 37 38 39 40 41 42 43 44 45 46 47 48 49 50
000
FPUS83 KFGF 270131
OPUFGF
PRAIRIE TO PINES WEATHER ROUNDUP
NATIONAL WEATHER SERVICE EASTERN NORTH DAKOTA/GRAND FORKS ND
800 PM CDT THU MAR 26 2015

 **SATELLITE DATA USED TO AUGMENT SKY COVER AT AUTOMATED STATIONS**
 *****  WEATHER ACROSS EASTERN NORTH DAKOTA  *****

CITY           SKY/WX    TMP DP  RH WIND       PRES   REMARKS
GRAND FORKS    MOCLDY    26  15  63 N10       30.30R WCI  16
GRAND FORKS AF CLOUDY    27  15  59 NE12      30.30R WCI  17
GRAND CITY NWS   N/A     25 N/A N/A N10         N/A  WCI  15
BUXTON           N/A     27  14  58 N7          N/A  WCI  19
DEVILS LAKE    CLEAR     27  16  63 NE6       30.27S WCI  20
FARGO          CLEAR     28   9  44 N16       30.28R WCI  16
WAHPETON ARPT  CLEAR     28   5  37 N12       30.27R WCI  18
$$

 *****  WEATHER ACROSS CENTRAL AND WESTERN NORTH DAKOTA  *****

CITY           SKY/WX    TMP DP  RH WIND       PRES   REMARKS
JAMESTOWN      CLEAR     27  12  53 NE7       30.26R WCI  19
BISMARCK       MOCLDY    33  20  58 E6        30.23S
MINOT          PTCLDY    32  20  61 E6        30.22S
MINOT AFB      PTCLDY    33  26  74 SE6       30.21S
GARRISON         N/A     33  21  61 SE3       30.21S
WILLISTON      CLOUDY    41  26  55 E9        30.15S
DICKINSON      CLOUDY    34  27  75 E6        30.15S
HETTINGER      MOCLDY    36  28  73 E9        30.17S
$$

 *****  OTHER OBSERVATIONS NORTHEAST NORTH DAKOTA  *****

CITY           SKY/WX    TMP DP  RH WIND       PRES   REMARKS
WALHALLA         N/A     27  23  86 NE5       30.32S WCI  21
LANGDON        NOT AVBL
CAVALIER       FAIR      27  19  74 N7        30.32R WCI  19
GRAFTON        NOT AVBL
CANDO          MOCLDY    27  19  74 E6        30.28S WCI  20
FORT TOTTEN      N/A     28  14  55 CALM      29.95S
ROLLA          FAIR      27  19  74 E5        30.25F WCI  21
RUGBY            N/A     28  23  80 SE8       30.26R WCI  20
 ***** THE ABOVE OBSERVATIONS ARE NON NWS ARE NOT QUALITY
        CONTROLLED AND MAY MIS-REPORT RAIN FOR SNOW...
$$

 *****  OTHER OBSERVATIONS SOUTHEAST NORTH DAKOTA *****

CITY           SKY/WX    TMP DP  RH WIND       PRES   REMARKS
COOPERSTOWN    NOT AVBL
VALLEY CITY    FAIR      25  16  68 NE8       30.28R WCI  16
OAKES            N/A     27  16  63 N10       30.27R WCI  17
GWINNER        CLEAR     28  12  50 N10         N/A  WCI  19
BUFFALO        NOT AVBL
WYNDMERE       NOT AVBL
 ***** THE ABOVE OBSERVATIONS ARE NON NWS ARE NOT QUALITY
       CONTROLLED AND MAY MIS-REPORT RAIN FOR SNOW...
$$

  *****  WEATHER ACROSS NORTHERN MINNESOTA  *****

CITY           SKY/WX    TMP DP  RH WIND       PRES   REMARKS
FLAG ISLAND    CLEAR     21   7  53 NW9       30.26R WCI  11
WARROAD        CLEAR     21   9  58 CALM      30.27R
ROSEAU         CLEAR     25   7  46 N9        30.27R WCI  15
HALLOCK        CLEAR     25   9  50 N7        30.31R WCI  17
THF RVR FALLS  CLEAR     25   9  50 NW10      30.27R WCI  15
HALSTAD          N/A     25   7  46 N10         N/A  WCI  14
FOSSTON        CLEAR     21   9  58 N9        30.25R WCI  11
BAUDETTE       CLEAR     22   3  44 N10       30.23R WCI  11
WASKISH        CLEAR     21   3  45 N5        30.24R WCI  15
CROOKSTON      CLEAR     25  12  58 N8        30.30R WCI  16
$$
  *****  WEATHER ACROSS CENTRAL AND WEST MINNESOTA  *****

CITY           SKY/WX    TMP DP  RH WIND       PRES   REMARKS
BEMIDJI        CLEAR     22  -2  34 N5        30.21S WCI  16
PARK RAPIDS    CLEAR     27  -2  28 N10       30.18R WCI  17
WADENA         CLEAR     25  10  54 N8        30.20R WCI  16
DETROIT LAKES  CLEAR     27  14  59 N8        30.24R WCI  18
MOORHEAD       CLEAR     27   7  43 N8        30.29R WCI  18
FERGUS FALLS   CLEAR     25   9  50 N8        30.27R WCI  16
ELBOW LAKE     FAIR      25  12  58 N9        30.23R WCI  15
MORRIS MN      CLEAR     27  16  63 N14       30.22R WCI  15
STAPLES        CLEAR     25  -4  28 N7        30.19R WCI  17
WHEATON        CLEAR     25  10  54 N10       30.27R WCI  15
$$
  *****  WEATHER ELSEWHERE ACROSS MINNESOTA  *****

CITY           SKY/WX    TMP DP  RH WIND       PRES   REMARKS
DULUTH         PTCLDY    24   2  38 N7        30.13R WCI  16
INTRNTL FALLS  CLEAR     22   1  40 N10       30.22R WCI  11
ELY            CLEAR     19  -2  38 N7        30.16R WCI  10
CLOQUET        CLEAR     25  -2  30 N9        30.15R WCI  15
BRAINERD       CLEAR     27   5  39 N14       30.18R WCI  16
HIBBING        CLEAR     23  -2  33 N13       30.16R WCI  11
ALEXANDRIA     CLEAR     27  11  51 NW14      30.19R WCI  16
SAINT CLOUD    CLEAR     29   8  41 N12       30.15R WCI  19
MINNEAPOLIS    PTCLDY    31   6  35 N13       30.15R WCI  21
$$

  *****  WEATHER ACROSS SOUTH DAKOTA  *****

CITY           SKY/WX    TMP DP  RH WIND       PRES   REMARKS
SIOUX FALLS    PTCLDY    32  18  56 N12       30.18R WCI  23
BROOKINGS      NOT AVBL
WATERTOWN      CLEAR     27  14  58 N12       30.19S WCI  17
HURON          CLEAR     32  15  49 N8        30.22R WCI  25
SISSETON         N/A     29  15  56 N14       30.24R WCI  18
ABERDEEN       CLEAR     32  14  47 NE12      30.25R WCI  23
MITCHELL       PTCLDY    35  20  54 N13       30.22R
PIERRE         CLOUDY    36  31  82 CALM      30.21S
MOBRIDGE       CLOUDY    37  21  52 NE6       30.19R
RAPID CITY     CLOUDY    43  27  53 E9        30.13R
$$

  *****  SOME WEATHER IN NEARBY STATES *****

CITY           SKY/WX    TMP DP  RH WIND       PRES   REMARKS
GLASGOW MT     MOCLDY    46  33  60 E16       30.05S
GREAT FALLS MT MOCLDY    59  35  40 W23G32    30.09R
CHEYENNE WY    CLOUDY    48  25  40 N9        30.14R
SCOTTSBLUFF NE CLOUDY    50  34  54 N18       30.10F
OMAHA NE       LGT RAIN  35  33  92 N8        30.17R
DES MOINES IA  CLOUDY    40  24  53 N14       30.12R
DAVENPORT IA   CLEAR     32  21  64 N13       30.07R WCI  22
CHICAGO IL     CLOUDY    36  19  50 N17       30.00S
EAU CLAIRE WI  CLEAR     28  11  48 N6        30.10R WCI  22
LA CROSSE WI   CLOUDY    34  18  52 N9        30.10R
$$

  *****  SOME NATIONAL WEATHER *****

CITY           SKY/WX    TMP DP  RH WIND       PRES   REMARKS
LA GUARDIA NY  CLOUDY    54  48  82 E6        29.63R
RALEIGH NC     CLOUDY    69  55  60 S9        29.73S
ATLANTA GA     CLOUDY    66  52  60 S3        29.78F
NEW ORLEANS LA CLOUDY    63  60  90 NW3       29.88R
OKLAHOMA CITY  PTCLDY    55  30  38 CALM      30.11F
ALBUQUERQUE NM PTCLDY    62  18  18 S7        30.20S
SALT LAKE CITY MOCLDY    58  27  30 N7        30.32F
LOS ANGELES CA SUNNY     76  39  26 W15       30.00S
BOISE ID       SUNNY     64  37  36 NW7       30.26F
SEATTLE WA     MOSUNNY   68  49  50 S5        30.16F
$$

*** WEATHER ACROSS MANITOBA...SASKATCHEWAN AND ONTARIO ***
                ***ONTARIO***

CITY           SKY/WX    TMP DP  RH WIND       PRES   REMARKS
GERALDTON      PTCLDY    10  -6  48 N7        30.12R WCI   0
THUNDER BAY    PTCLDY    19   1  45 N6        30.19R WCI  11
SIOUX LOOKOUT  PTCLDY    14   3  62 N5        30.21R WCI   6
TORONTO        CLOUDY    37  30  75 W12       29.82R
BIG TROUT LK   CLEAR      5  -8  56 NW5       30.25R WCI  -4
PICKLE LAKE    CLEAR     10  -6  48 NE6       30.20R WCI   1
DRYDEN         CLEAR     16   3  57 N6        30.23R WCI   7
KENORA         CLEAR     19   0  42 N5        30.24R WCI  13
$$
                *** MANITOBA***

CITY           SKY/WX    TMP DP  RH WIND       PRES   REMARKS
BRANDON        PTCLDY    27  19  74 E6        30.28F WCI  20
DAUPHIN        PTCLDY    21  16  79 E7        30.27F WCI  13
ISLAND LAKE    CLEAR     18  -4  38 CALM      30.28S
PILOT MOUND      N/A     25  21  86 NE5         N/A  WCI  19
THE PAS        PTCLDY    25  16  68 SE12      30.22F WCI  14
THOMPSON       CLEAR     23  -9  23 S2        30.23F
WINNIPEG       PTCLDY    21   9  58 NE6       30.34R WCI  14
LYNN LAKE      CLEAR     25   7  46 S3        30.14F
CHURCHILL      CLEAR     10  -4  52 SW8       30.20F WCI  -1
GILLAM         CLEAR     18  -4  38 SW3       30.25F
$$
                ***SASKATCHEWAN***

CITY           SKY/WX    TMP DP  RH WIND       PRES   REMARKS
ESTEVAN        CLOUDY    32  25  74 SE10      30.18F WCI  24
KINDERSLEY     MOCLDY    45  37  76 SE7       29.98F
LLOYDMINSTER   CLOUDY    36  30  80 SE7       29.96F
PRINCE ALBERT  CLOUDY    34  27  75 SE8       30.09F
REGINA         MOCLDY    36  30  80 SE15      30.13F
YORKTON        CLEAR     28  21  74 SE7       30.20F WCI  21


USA.gov is the U.S. government's official web portal to all federal, state and local government web resources and services.